Home   Weather   Leutkirch im Allgäu   Past weeks

Flag for Germany Past Weather in Leutkirch im Allgäu, Baden-Württemberg, Germany — Yesterday and Last 2 Weeks

Now
36 °F

Clear.


Feels Like: 36 °F
Forecast: 32 / 43 °F
Wind: 1 mph from North

Location: Friedrichshafen Airport

Current Time: Feb 27, 2017 at 9:58:16 pm

Latest Report: Feb 27, 2017 at 9:20 pm


Visibility: 10 mi

Pressure: 29.56 "Hg (27.25 "Hg at 656m altitude)

Humidity: 87%

Dew Point: 32 °F

Location of Leutkirch im AllgäuLocation

Past Weather in Leutkirch im Allgäu — Graph

°F

Leutkirch im Allgäu Temperature Yesterday

Maximum temperature yesterday: 52 °F (at 2:50 pm)
Minimum temperature yesterday: 27 °F (at 7:20 am)
Average temperature yesterday: 38 °F

High & Low Weather Summary for the Past Weeks

 TemperatureHumidityPressure
High64 °F (Feb 23, 4:20 pm)100% (Feb 14, 2:50 am)30.60 "Hg (Feb 14, 2:50 am)
Low23 °F (Feb 15, 4:50 am)28% (Feb 23, 4:20 pm)29.56 "Hg (Feb 23, 5:20 pm)
Average39 °F87%30.19 "Hg
* Reported Feb 12 8:20 pm — Feb 27 8:20 pm, Leutkirch im Allgäu, Weather by CustomWeather, © 2017

Note: Actual official high and low records may vary slightly from our data, if they occured in-between our weather recording intervals... More about our weather records

Advertising

Leutkirch im Allgäu Weather History for the Previous 24 Hours

Scroll right to see more
 ConditionsComfort  
Time TempWeatherWind HumidityBarometerVisibility
8:20 pm
Mon, Feb 27
39 °FClear.1 mph81%29.59 "Hg10 mi
7:50 pm43 °FClear.1 mph76%29.59 "Hg10 mi
7:20 pm45 °FClear.1 mph71%29.62 "Hg10 mi
6:20 pm48 °FClear.3 mph58%29.62 "Hg10 mi
5:20 pm54 °FSunny.6 mph51%29.62 "Hg10 mi
4:20 pm57 °FSunny.3 mph48%29.65 "Hg10 mi
3:50 pm57 °FSunny.6 mph44%29.65 "Hg10 mi
3:20 pm57 °FSunny.6 mph48%29.68 "Hg10 mi
2:50 pm57 °FSunny.6 mph48%29.68 "Hg10 mi
2:20 pm55 °FSunny.9 mph51%29.71 "Hg10 mi
1:50 pm55 °FSunny.6 mph51%29.71 "Hg10 mi
1:20 pm55 °FPassing clouds.5 mph55%29.74 "HgN/A
12:50 pm54 °FSunny.6 mph63%29.74 "Hg10 mi
12:20 pm55 °FSunny.2 mph55%29.77 "Hg10 mi
11:50 am54 °FSunny.2 mph58%29.80 "Hg10 mi
11:20 am52 °FSunny.1 mph62%29.80 "Hg10 mi
10:50 am46 °FSunny.2 mph71%29.83 "Hg10 mi
10:20 am43 °FSunny.No wind76%29.83 "Hg10 mi
9:50 am43 °FSunny.No wind87%29.86 "Hg10 mi
9:20 am36 °FSunny.3 mph93%29.86 "Hg10 mi
8:50 am36 °FSunny.2 mph100%29.89 "Hg10 mi
8:20 am32 °FSunny.2 mph100%29.89 "Hg10 mi
7:50 am28 °FSunny.1 mph100%29.89 "Hg10 mi
7:20 am27 °FSunny.1 mph100%29.92 "Hg10 mi
6:50 am27 °FClear.2 mph100%29.92 "Hg10 mi
6:20 am27 °FClear.No wind100%29.92 "Hg10 mi
5:50 am27 °FClear.2 mph100%29.92 "Hg10 mi
5:20 am27 °FChilly.2 mph100%29.92 "HgN/A
4:50 am28 °FChilly.2 mph100%29.95 "HgN/A
4:20 am27 °FChilly.2 mph100%29.95 "HgN/A
3:50 am27 °FChilly.3 mph100%29.95 "HgN/A
3:20 am28 °FChilly.No wind93%29.95 "HgN/A
2:50 am28 °FChilly.2 mph100%29.95 "HgN/A
2:20 am28 °FChilly.No wind93%29.98 "HgN/A
1:50 am28 °FChilly.2 mph100%29.98 "HgN/A
1:20 am30 °FChilly.3 mph100%29.98 "HgN/A
12:50 am30 °FChilly.No wind93%29.98 "HgN/A
12:20 am30 °FChilly.1 mph100%30.01 "HgN/A
11:50 pm
Sun, Feb 26
30 °FChilly.1 mph100%30.01 "HgN/A
11:20 pm32 °FChilly.1 mph100%30.01 "HgN/A
10:50 pm32 °FChilly.No wind93%30.01 "HgN/A
10:20 pm34 °FChilly.No wind93%30.01 "HgN/A
9:50 pm34 °FChilly.No wind93%30.01 "HgN/A
Weather by CustomWeather, © 2017

See weather overviewHow to use our weather pages